Overview Statistics Trail Chart Weather Telemetry Raw packets
 

This is the latest recevied weather packets stored in our database for station/object KD2SIG. If no packets are shown the sender has not sent any weather packets the latest 10 day(s).

<< 106 107 108 109 110 111 112 >>
Time Temp. Humidity Pressure Rain* Wind** Luminosity Snow
1787795857 18.89° C 84% 1016.3 hPa 0 mm - 0 W/m² -
1787795552 18.89° C 85% 1016.2 hPa 0 mm - 0 W/m² -
1787795252 18.33° C 86% 1016.3 hPa 0 mm - 0 W/m² -
1787794950 18.33° C 86% 1016.3 hPa 0 mm - 0 W/m² -
1787794646 18.33° C 87% 1016.5 hPa 0 mm - 0 W/m² -
1787794341 18.33° C 88% 1016.3 hPa 0 mm - 0 W/m² -
1787794036 17.78° C 90% 1016.4 hPa 0 mm - 0 W/m² -
1787793733 17.78° C 90% 1016.4 hPa 0 mm - 0 W/m² -
1787793433 18.33° C 91% 1016.4 hPa 0 mm - 0 W/m² -
1787793128 18.33° C 91% 1016.3 hPa 0 mm - 0 W/m² -
1787792823 18.33° C 91% 1016.2 hPa 0 mm - 0 W/m² -
1787792523 18.33° C 91% 1016.4 hPa 0 mm - 0 W/m² -
1787792220 17.78° C 91% 1016.4 hPa 0 mm - 0 W/m² -
1787791918 18.33° C 90% 1016.4 hPa 0 mm - 0 W/m² -
1787791613 18.33° C 90% 1016.4 hPa 0 mm - 0 W/m² -
1787791309 18.89° C 89% 1016.4 hPa 0 mm - 0 W/m² -
1787791004 18.89° C 89% 1016.4 hPa 0 mm - 0 W/m² -
1787790700 18.89° C 89% 1016.5 hPa 0 mm - 0 W/m² -
1787790394 18.89° C 89% 1016.5 hPa 0 mm - 0 W/m² -
1787790089 18.89° C 88% 1016.4 hPa 0 mm - 0 W/m² -
1787789786 19.44° C 88% 1016.5 hPa 0 mm - 0 W/m² -
1787789480 19.44° C 87% 1016.5 hPa 0 mm - 0 W/m² -
1787789179 19.44° C 86% 1016.6 hPa 0 mm - 0 W/m² -
1787788879 20° C 85% 1016.5 hPa 0 mm - 0 W/m² -
1787788571 20° C 85% 1016.4 hPa 0 mm - 0 W/m² -

* Rain latest hour (hover to see other rain measurements)
** Current wind speed in m/s (hover to see current wind gust speed)